Temp
-8 -7 -5 -2 -0 5 7 8 11 10 9 9 9 8 8 8 7 8 9 9 9 10
-10 -7 -6 -3 -0 3 7 7 8 9 9 9 9 8 8 8 8 9 9 10 10 10
-11 -9 -7 -5 -1 1 5 8 8 7 8 8 8 8 8 8 8 9 8 9 9 10
-11 -10 -8 -6 -3 -0 2 7 8 7 7 7 7 8 8 7 8 8 9 9 9 10
-12 -10 -9 -7 -5 -1 1 4 6 7 6 7 7 7 7 8 8 8 9 8 8 10
-13 -11 -10 -8 -6 -3 -1 2 4 6 6 6 6 6 6 7 7 8 9 9 9 10
-14 -13 -11 -9 -7 -4 -2 0 2 3 4 6 6 6 6 6 7 8 8 8 9 9
-14 -13 -11 -9 -8 -5 -3 -1 -0 2 2 3 5 6 6 5 6 6 6 6 7 8
-15 -13 -12 -10 -9 -7 -5 -2 -1 -0 1 2 3 4 5 5 5 5 5 4 5 5
-15 -14 -13 -11 -10 -8 -6 -4 -2 -2 -1 -0 1 2 1 4 4 4 3 4 4 4
-16 -15 -13 -12 -11 -9 -7 -6 -3 -2 -2 -1 -0 -0 -1 -0 2 1 2 2 3 3
-16 -15 -14 -13 -11 -10 -8 -6 -5 -2 -2 -2 -1 -1 -1 -1 -1 -1 -0 -0 1 1
-16 -15 -14 -13 -12 -10 -8 -7 -6 -3 -2 -2 -1 -1 -1 -1 -1 -1 -1 -0 0 1
-16 -15 -13 -12 -11 -10 -9 -8 -7 -5 -4 -3 -2 -2 -2 -2 -2 -2 -2 -2 -1 -1
Height
756 750 745 737 736 735 739 737 736 745 751 755 759 763 767 774 778 781 785 790 795 800
757 743 743 737 734 732 733 738 738 738 745 751 755 760 765 769 773 778 784 789 794 800
759 754 745 740 733 730 730 733 737 738 741 746 751 756 761 765 769 775 780 788 792 799
763 753 746 740 734 729 727 729 730 734 738 741 746 751 756 760 764 771 779 785 791 796
762 751 745 741 735 729 725 724 726 729 735 739 742 746 751 755 760 765 773 780 790 792
764 755 749 743 735 728 724 721 725 726 731 736 737 742 747 751 756 762 768 775 783 786
768 762 756 747 737 729 725 722 724 722 727 731 734 739 743 749 755 761 767 774 779 783
774 766 759 750 739 733 730 725 724 725 725 725 732 736 740 746 752 757 764 770 777 782
776 769 763 752 743 736 730 726 725 724 725 728 728 733 738 742 749 756 761 767 774 782
779 774 767 758 750 742 735 731 730 726 726 728 728 730 737 743 746 753 759 765 770 779
789 782 774 762 755 747 738 735 728 726 728 728 727 732 738 742 745 754 758 765 768 776
799 791 780 766 758 752 743 740 736 733 729 729 730 733 738 737 746 755 758 766 768 773
797 788 780 774 763 755 750 747 742 736 734 734 734 736 741 742 745 752 760 768 771 778
802 792 784 775 771 765 759 754 748 744 741 739 742 742 744 744 746 750 757 764 770 775
Wind_Speed
33 27 25 22 20 9 21 33 41 39 38 38 40 39 38 35 32 38 36 36 34 32
34 35 32 24 20 15 24 27 35 41 41 38 39 42 41 35 36 41 40 34 32 28
36 31 30 26 20 16 17 29 34 38 39 40 40 40 41 37 42 43 38 34 29 24
38 36 31 28 24 20 12 29 33 38 41 40 40 41 41 39 44 44 39 31 32 30
39 40 36 33 27 20 16 17 33 35 36 39 38 40 40 42 44 44 43 34 35 32
40 41 40 35 30 23 17 9 26 30 33 34 38 38 38 43 43 44 44 43 39 35
40 39 38 35 30 25 18 8 17 27 35 33 36 37 38 37 39 41 41 41 39 38
40 38 38 37 31 26 18 9 10 23 27 33 32 37 36 35 37 40 40 40 39 39
40 40 39 39 35 29 24 13 5 14 23 27 29 31 33 38 35 36 38 39 38 35
41 39 39 38 36 34 29 17 6 7 18 24 27 25 24 32 35 36 36 39 38 34
38 37 37 37 37 37 33 26 12 2 11 20 24 23 24 26 31 32 34 37 39 37
34 34 34 37 37 36 35 29 20 7 6 13 21 23 25 29 29 29 31 33 36 36
32 33 34 34 35 35 34 29 23 24 19 11 14 17 22 28 33 30 29 28 29 30
27 30 30 33 34 34 34 32 31 28 25 20 12 14 15 22 26 27 27 26 30 31
Wind_Direction
352 349 338 336 321 272 225 206 204 205 201 198 197 193 188 190 185 180 180 176 177 179
350 353 345 344 330 306 230 225 208 203 200 199 200 200 195 189 189 190 189 184 182 186
347 349 351 347 342 319 248 222 219 203 198 198 199 197 193 194 197 196 193 196 188 190
349 353 354 352 348 336 284 221 218 211 204 199 198 199 194 194 196 196 194 196 199 197
353 358 356 355 353 346 321 224 216 215 210 206 201 202 197 200 201 198 197 197 196 190
357 357 353 353 357 355 336 263 224 205 206 205 203 202 200 206 203 202 202 198 193 188
356 354 351 353 2 3 349 298 235 222 212 208 207 206 204 203 204 202 203 200 197 189
355 358 356 359 6 9 5 334 234 214 211 209 206 205 200 199 201 200 197 196 194 191
357 359 356 0 3 10 13 8 287 216 210 202 200 205 206 203 196 198 194 191 191 190
357 354 356 359 1 7 7 12 352 223 209 204 200 192 191 204 195 194 191 190 186 182
355 352 354 360 0 5 8 1 17 322 216 204 193 177 172 180 185 184 183 185 180 176
354 352 353 0 358 1 6 2 22 86 172 190 184 177 171 174 175 171 167 171 170 171
358 0 357 4 2 3 13 6 22 65 78 124 145 166 174 188 179 173 173 175 171 177
3 4 10 16 16 7 14 16 25 43 66 79 108 141 156 166 161 160 159 167 177 188